Regional Weather Roundup
Issued by NWS

Current Version | Previous Version | Text Only | Print | Product List | Glossary On
Versions: 1 2 3 4 5 6 7 8 9 10 11 12 13 14 15 16 17 18 19 20 21 22 23 24 25 26 27 28 29 30 31 32 33 34 35 36 37 38 39 40 41 42 43 44 45 46 47 48 49 50
000
ASUS42 KTBW 281717
RWRFL
FLORIDA REGIONAL WEATHER ROUNDUP
NATIONAL WEATHER SERVICE TAMPA BAY RUSKIN FL
100 PM EDT THU MAY 28 2015

NOTE: "FAIR" INDICATES FEW OR NO CLOUDS BELOW 12,000 FEET WITH NO
SIGNIFICANT WEATHER AND/OR OBSTRUCTIONS TO VISIBILITY.


FLZ001>010-012>015-112-114-115-281800-
PANHANDLE FLORIDA

CITY           SKY/WX    TMP DP  RH WIND       PRES   REMARKS
PENSACOLA      CLOUDY    79  71  76 SE9       30.14S
PENSACOLA NAS  CLOUDY    82  74  76 SE14      30.13F
MILTON NAS     CLOUDY    76  73  91 CALM      30.14
CRESTVIEW      PTSUNNY   88  71  57 VRB3      30.15F
DUKE FIELD     PTSUNNY   85  68  56 SE7       30.13F
VALPARAISO     PTSUNNY   86  71  60 SE13      30.13F
MARY ESTHER    MOSUNNY   82  71  68 SE13      30.12F
TRI COUNTY     FAIR      86  71  60 E6        30.14F
PANAMA CITY    TSTM      78  73  84 SE13      30.12F
TYNDALL AFB    TSTM      73  66  78 SE30G39   30.16R VSB<1/4
APALACHICOLA   MOSUNNY   87  71  58 SE14      30.14F

STATION/POSITION SKY/WX   TEMP    WIND        PRES    WAVE   SWELL
                          AIR SEA DIR/SP/G            HT/PER HT/PER
                          (F)     (DEG/KT/KT) (MB)    (FT/S) (FT/S)
30.1N   87.6W              80 80  130/ 12/ 14 1019.6R   2/ 6   2/ 6
29.2N   88.2W              74 81  180/  8/ 12 1021.1R   3/ 7   2/ 7
28.8N   86.0W              80 81  150/ 12/ 14 1020.5F   3/ 8   2/ 8
PANAMA CITY BEAC           80 82  150/ 12/ 13 1020.8R
CAPE SAN BLAS    NOT AVBL
TOWER C                    79     130/ 10/ 11 1020.7F
28.5N   84.5W              80 81  130/ 12/ 14 1020.8F   3/ 5   2/ 6

$$
FLZ011-016>038-118-127-128-134-139-239-281800-
NORTH FLORIDA

CITY           SKY/WX    TMP DP  RH WIND       PRES   REMARKS
MARIANNA       PTSUNNY   84  73  69 E7        30.14F
TALLAHASSEE    PTSUNNY   87  66  49 E13       30.16F
PERRY          MOSUNNY   84  65  51 SE6       30.18S
CROSS CITY       N/A     87  64  46 VRB7      30.16F
LAKE CITY      FAIR      82  64  54 SE5       30.18F
GAINESVILLE    MOSUNNY   86  59  39 E12       30.17F
MAYPORT NAS    PTSUNNY   84  62  47 E13       30.20F
JACKSONVILLE   PTSUNNY   84  60  44 E15       30.19F
JAX NAS        PTSUNNY   86  58  38 NE13      30.19F
JAX CRAIG      MOSUNNY   84  61  45 E12       30.20S
JAX CECIL      NOT AVBL
FERNANDINA BEA FAIR      86  66  51 E12       30.20S
ST AUGUSTINE   MOSUNNY   82  65  56 E12       30.20F

STATION/POSITION SKY/WX   TEMP    WIND        PRES    WAVE   SWELL
                          AIR SEA DIR/SP/G            HT/PER HT/PER
                          (F)     (DEG/KT/KT) (MB)    (FT/S) (FT/S)
SHELL POINT                81     110/  8/ 12   N/A
KEATON BEACH               79     200/ 10/ 11 1021.6F
CEDAR KEY                  79     150/  6/  7 1021.6F
FERNANDINA                 81 81   90/  6/ 13 1022.3F
30.7N   81.3W                 80                N/A     3/ 8
MAYPORT                    78 80   70/ 11/ 13 1023.1F
31.4N   80.9W              77 78  110/  8/  8 1023.5F   3/ 7   3/ 7
ST AUGUSTINE               78 79   80/ 10/ 11 1023.1F

$$
FLZ040-043>046-052-053-057-058-063-144-281800-
INTERIOR CENTRAL FLORIDA

CITY           SKY/WX    TMP DP  RH WIND       PRES   REMARKS
OCALA          MOSUNNY   84  61  45 E6        30.16F
THE VILLAGES     N/A     86  61  42 E10       30.06F
LEESBURG       SUNNY     88  55  32 NE10G18   30.17F
SANFORD        PTSUNNY   87  61  41 E10G18    30.16F
ORLANDO EXEC   PTSUNNY   86  60  41 E15       30.15F
ORLANDO INTL   PTSUNNY   84  63  49 SE10      30.14F
KISSIMMEE      PTSUNNY   84  63  48 E12       30.15F
WINTER HAVEN   PTSUNNY   85  63  47 NE10      30.15F
LAKELAND       PTSUNNY   84  63  48 E6        30.14F
BARTOW         PTSUNNY   84  61  45 E12       30.15F
OKEECHOBEE     MOSUNNY   86  64  48 NE7G16    30.12F

$$
FLZ041-047-054-059-064-141-147-281800-
EAST CENTRAL FLORIDA

CITY           SKY/WX    TMP DP  RH WIND       PRES   REMARKS
ORMOND BEACH   MOSUNNY   82  64  54 E12G17    30.18F
DAYTONA BEACH  MOSUNNY   84  66  54 E12G18    30.18F
DELAND           N/A     84  61  45 NE12G17   30.18S
NEW SMYRNA BEA PTSUNNY   81  64  57 E12       30.19F
JFK SPACE CTR  PTSUNNY   82  65  56 E8G17     30.15F
TITUSVILLE     MOSUNNY   82  64  54 E12       30.16F
CAPE CANAVERAL MOSUNNY   82  66  57 E13       30.15F
PATRICK AFB    SUNNY     84  64  51 E14       30.15F
MELBOURNE      PTSUNNY   83  63  50 E13       30.15F
VERO BEACH     MOSUNNY   85  61  44 NE14      30.15S
FT PIERCE      MOSUNNY   84  64  50 E16       30.14S
STUART         PTSUNNY   82  64  54 E15G22    30.14F

STATION/POSITION SKY/WX   TEMP    WIND        PRES    WAVE   SWELL
                          AIR SEA DIR/SP/G            HT/PER HT/PER
                          (F)     (DEG/KT/KT) (MB)    (FT/S) (FT/S)
28.5N   80.2W              78 81   70/ 14/ 16 1021.8R
28.9N   78.5W              77 81   60/ 14/ 17 1021.9R
TRIDENT PIER               82 82   80/  7/ 13 1022.1R
28.4N   80.5W                 82                N/A     3/ 8
27.5N   80.2W                 81                N/A     4/ 8

$$
FLZ050-056-061-142-242-148-248-149-249-151-251-155-255-
160-260-281800-
WEST CENTRAL FLORIDA

CITY           SKY/WX    TMP DP  RH WIND       PRES   REMARKS
CRYSTAL RIVER  PTSUNNY   82  63  51 E5        30.15F
INVERNESS      FAIR      86  64  48 E7        30.16F
BROOKSVILLE    PTSUNNY   84  63  49 E8        30.15F
CLEARWATER     SUNNY     86  66  51 VRB5      30.14F
TAMPA INTL     PTSUNNY   86  60  41 NE8G17    30.14F
TAMPA EXEC     PTSUNNY   88  64  45 NE5       30.14F
PLANT CITY     MOSUNNY   88  64  45 E12       30.15F
MACDILL AFB    MOSUNNY   86  65  49 SE12G21   30.13F
PETER O KNIGHT MOSUNNY   88  64  45 NE8       30.14F
ST PETERSBURG  SUNNY     84  65  52 E12       30.12F
SARASOTA       PTSUNNY   85  64  49 E9        30.11F
VENICE         FAIR      86  64  48 MISG      30.12F

STATION/POSITION SKY/WX   TEMP    WIND        PRES    WAVE   SWELL
                          AIR SEA DIR/SP/G            HT/PER HT/PER
                          (F)     (DEG/KT/KT) (MB)    (FT/S) (FT/S)
CEDAR KEY                  79     150/  6/  7 1021.6F
28.5N   84.5W              80 81  130/ 12/ 14 1020.8F   3/ 5   2/ 6
27.3N   84.2W                 81                N/A     4/ 6
CLEARWATER BEACH           81 83   80/  4/  8 1021.1F
MIDDLE TAMPA BAY           81      60/  8/ 11 1020.9F
VENICE                     84 84   80/  9/ 14 1019.4F

$$
FLZ066-069-070-075>078-162-262-165-265-281800-
SOUTHWEST FLORIDA AND KEYS

CITY           SKY/WX    TMP DP  RH WIND       PRES   REMARKS
PUNTA GORDA    CLOUDY    84  62  47 E12       30.13F
FT MYERS       MOSUNNY   88  57  34 E14       30.09F
SOUTHWEST INTL PTSUNNY   86  58  38 E9G20     30.10F
NAPLES         PTSUNNY   84  63  49 E10       30.09F
MARCO ISLAND     N/A     86  63  45 NE12      30.09F
IMMOKALEE      MOSUNNY  N/A N/A N/A E6G21     30.11F
MARATHON       CLOUDY    86  66  51 E12       30.08S
KEY WEST NAS   PTSUNNY   87  66  49 E20       30.08S
KEY WEST INTL  SUNNY     85  66  53 E17       30.08S

STATION/POSITION SKY/WX   TEMP    WIND        PRES    WAVE   SWELL
                          AIR SEA DIR/SP/G            HT/PER HT/PER
                          (F)     (DEG/KT/KT) (MB)    (FT/S) (FT/S)
VENICE                     84 84   80/  9/ 14 1019.4F
NAPLES                     82 83  110/  8/ 12 1019.5F
26.0N   85.6W              81 82   80/ 10/ 12 1018.9F   3/ 5   2/ 5
DRY TORTUGAS               81      70/ 16/ 17 1018.9R
NW FL BAY                  81     110/ 13/ 16 1019.0
SAND KEY                   80      80/ 16/ 19 1018.5S
SOMBRERO KEY               80      90/ 15/ 16 1019.1R
LONG KEY                   80 81   90/ 14/ 15 1019.5S
MOLASSES REEF              79 82   80/ 15/ 18 1018.5F

$$
FLZ067-068-071>074-168-172>174-281800-
SOUTHEAST FLORIDA

CITY           SKY/WX    TMP DP  RH WIND       PRES   REMARKS
W PALM BEACH   PTSUNNY   82  69  64 E15       30.12F
FT LAUDER-EXEC MOSUNNY   85  66  53 NE14G22   30.10F
FT LAUDERDALE  PTSUNNY   85  67  54 NE13G21   30.10S
POMPANO BEACH  MOSUNNY   85  66  53 E12       30.10F
OPA LOCKA      PTSUNNY   83  66  56 E16       30.10F
MIAMI          PTSUNNY   85  64  49 E15G23    30.10S
WEST KENDALL   SUNNY     87  63  44 E17       30.09F
HOMESTEAD      MOSUNNY   83  65  54 NE14G23   30.09S

STATION/POSITION SKY/WX   TEMP    WIND        PRES    WAVE   SWELL
                          AIR SEA DIR/SP/G            HT/PER HT/PER
                          (F)     (DEG/KT/KT) (MB)    (FT/S) (FT/S)
PORT EVERGLADES            80      60/ 12/ 14 1019.3F
VIRGINIA KEY               80 82   60/ 12/ 16 1018.8F
LAKE WORTH                 78 81   10/ 10/ 11 1019.6F



USA.gov is the U.S. government's official web portal to all federal, state and local government web resources and services.